VE4UB Weather Reports


Display with metric or nautical units.
time (UTC)temp
F
wind
direction
speed
MPH
gust
MPH
rain 1hr
in
rain 24hr
in
rain mn
in
humidity
%
barometer
mb
20180424204709 46 39 4.0 4.0 0.00 0.00 0.00 42 1030.4
20180424203649 46 8 6.0 6.0 0.00 0.00 0.00 42 1030.5
20180424202649 46 51 4.0 5.0 0.00 0.00 0.00 44 1030.6
20180424201649 45 17 0.0 4.0 0.00 0.00 0.00 45 1030.7
20180424200708 44 359 5.0 6.0 0.00 0.00 0.00 46 1030.8
20180424195649 44 48 4.0 6.0 0.00 0.00 0.00 47 1030.9
20180424194648 43 0 9.0 9.0 0.00 0.00 0.00 48 1031.1
20180424193649 43 14 0.0 2.0 0.00 0.00 0.00 48 1031.2
20180424192649 43 6 8.0 8.0 0.00 0.00 0.00 49 1031.3
20180424191649 42 39 6.0 6.0 0.00 0.00 0.00 48 1031.3
20180424190709 42 8 4.0 5.0 0.00 0.00 0.00 48 1031.3
20180424185649 41 7 5.0 6.0 0.00 0.00 0.00 49 1031.4
20180424184649 41 49 7.0 7.0 0.00 0.00 0.00 52 1031.5
20180424183648 40 4 9.0 9.0 0.00 0.00 0.00 51 1031.6
20180424182648 39 6 9.0 9.0 0.00 0.00 0.00 52 1031.7
20180424181649 39 22 4.0 9.0 0.00 0.00 0.00 52 1031.8
20180424180649 39 339 3.0 6.0 0.00 0.00 0.00 53 1032.0
20180424175708 38 24 4.0 10.0 0.00 0.00 0.00 53 1032.1
20180424174649 38 20 9.0 11.0 0.00 0.00 0.00 53 1032.1
20180424173708 38 359 7.0 7.0 0.00 0.00 0.00 54 1032.2
20180424172649 36 58 5.0 6.0 0.00 0.00 0.00 55 1032.2
20180424171649 36 11 7.0 7.0 0.00 0.00 0.00 54 1032.3
20180424170649 35 55 4.0 4.0 0.00 0.00 0.00 57 1032.3
20180424165708 35 11 6.0 6.0 0.00 0.00 0.00 56 1032.4
20180424164648 35 38 5.0 6.0 0.00 0.00 0.00 57 1032.4
20180424163709 34 42 12.0 12.0 0.00 0.00 0.00 58 1032.4
20180424162648 33 27 4.0 8.0 0.00 0.00 0.00 59 1032.5
20180424161648 33 8 7.0 12.0 0.00 0.00 0.00 58 1032.5
20180424160649 33 359 6.0 8.0 0.00 0.00 0.00 58 1032.5
20180424155648 33 8 7.0 7.0 0.00 0.00 0.00 60 1032.3
20180424154709 33 359 7.0 13.0 0.00 0.00 0.00 62 1032.3
20180424153649 32 11 8.0 8.0 0.00 0.00 0.00 66 1032.3
20180424152648 32 8 6.0 9.0 0.00 0.00 0.00 66 1032.1
20180424151648 32 18 3.0 4.0 0.00 0.00 0.00 67 1032.1
20180424150708 31 25 4.0 8.0 0.00 0.00 0.00 69 1032.1
20180424145648 31 0 11.0 12.0 0.00 0.00 0.00 69 1032.0
20180424144649 30 350 5.0 8.0 0.00 0.00 0.00 70 1032.0
20180424143708 30 359 7.0 10.0 0.00 0.00 0.00 72 1031.9
20180424142649 29 356 8.0 9.0 0.00 0.00 0.00 70 1032.0
20180424141708 30 359 7.0 8.0 0.00 0.00 0.00 70 1032.0
20180424140709 29 7 9.0 10.0 0.00 0.00 0.00 72 1031.9
20180424135708 29 6 8.0 8.0 0.00 0.00 0.00 73 1031.8
20180424134648 29 13 11.0 13.0 0.00 0.00 0.00 73 1031.8
20180424133648 29 41 10.0 10.0 0.00 0.00 0.00 74 1031.9
20180424132648 29 18 6.0 6.0 0.00 0.00 0.00 75 1031.8
20180424131648 28 0 15.0 15.0 0.00 0.00 0.00 75 1031.6
20180424130649 28 15 9.0 13.0 0.00 0.00 0.00 75 1031.4
20180424125649 28 11 8.0 13.0 0.00 0.00 0.00 76 1031.3
20180424124648 29 354 13.0 13.0 0.00 0.00 0.00 80 1031.3
20180424123649 30 17 7.0 9.0 0.00 0.00 0.00 86 1031.1
20180424122649 30 356 9.0 11.0 0.00 0.00 0.00 87 1031.0
20180424121648 30 10 6.0 11.0 0.00 0.00 0.00 90 1030.9
20180424120649 30 0 5.0 7.0 0.00 0.00 0.00 92 1030.8
20180424115648 30 336 5.0 6.0 0.00 0.00 0.00 93 1030.7
20180424114649 30 8 4.0 4.0 0.00 0.00 0.00 94 1030.5
20180424113649 29 1 5.0 7.0 0.00 0.00 0.00 95 1030.4
20180424112648 29 347 4.0 5.0 0.00 0.00 0.00 95 1030.2
20180424111648 28 309 0.0 0.0 0.00 0.00 0.00 95 1030.1
20180424110648 28 309 0.0 0.0 0.00 0.00 0.00 95 1029.9
20180424105649 28 309 0.0 0.0 0.00 0.00 0.00 94 1029.8
20180424104649 28 338 3.0 4.0 0.00 0.00 0.00 94 1029.6
20180424103648 28 307 0.0 3.0 0.00 0.00 0.00 94 1029.4
20180424102648 28 356 0.0 0.0 0.00 0.00 0.00 93 1029.3
20180424101648 29 356 0.0 0.0 0.00 0.00 0.00 93 1029.2
20180424100648 29 356 0.0 0.0 0.00 0.00 0.00 93 1029.0
20180424095648 30 356 0.0 0.0 0.00 0.00 0.00 93 1028.9
20180424094708 30 356 0.0 0.0 0.00 0.00 0.00 93 1028.8
20180424093648 30 356 0.0 0.0 0.00 0.00 0.00 93 1028.6
20180424092649 30 356 0.0 0.0 0.00 0.00 0.00 93 1028.6
20180424091708 30 356 0.0 0.0 0.00 0.00 0.00 93 1028.6
20180424090648 30 356 0.0 0.0 0.00 0.00 0.00 92 1028.5
20180424085649 31 356 0.0 0.0 0.00 0.00 0.00 92 1028.5
20180424084648 31 356 0.0 0.0 0.00 0.00 0.00 92 1028.5
20180424083708 31 356 0.0 0.0 0.00 0.00 0.00 92 1028.4
20180424082648 32 0 4.0 4.0 0.00 0.00 0.00 92 1028.4
20180424081649 32 31 0.0 0.0 0.00 0.00 0.00 92 1028.1
20180424080648 32 22 3.0 3.0 0.00 0.00 0.00 92 1028.0
20180424075648 32 58 4.0 4.0 0.00 0.00 0.00 91 1028.0
20180424074648 33 14 0.0 0.0 0.00 0.00 0.00 89 1027.9
20180424073648 33 27 4.0 5.0 0.00 0.00 0.00 88 1028.0
20180424072648 33 46 0.0 0.0 0.00 0.00 0.00 88 1027.6
20180424071648 33 44 5.0 5.0 0.00 0.00 0.00 88 1027.7
20180424070648 34 13 4.0 6.0 0.00 0.00 0.00 87 1027.8
20180424065648 34 62 5.0 6.0 0.00 0.00 0.00 87 1027.8
20180424064708 34 13 7.0 8.0 0.00 0.00 0.00 87 1027.7
20180424063648 34 52 3.0 4.0 0.00 0.00 0.00 86 1027.5
20180424062708 35 51 6.0 6.0 0.00 0.00 0.00 86 1027.5
20180424061708 35 25 3.0 6.0 0.00 0.00 0.00 86 1027.4
20180424060708 35 66 4.0 5.0 0.00 0.00 0.00 84 1027.3
20180424055648 35 22 6.0 6.0 0.00 0.00 0.00 83 1027.2
20180424054648 36 37 5.0 5.0 0.00 0.00 0.00 81 1027.0
20180424053649 36 41 4.0 6.0 0.00 0.00 0.00 79 1027.0
20180424052708 37 60 5.0 5.0 0.00 0.00 0.00 77 1026.9
20180424051648 37 48 5.0 6.0 0.00 0.00 0.00 76 1026.8
20180424050648 37 39 5.0 7.0 0.00 0.00 0.00 76 1026.7
20180424045648 37 28 6.0 6.0 0.00 0.00 0.00 75 1026.7
20180424044648 38 79 6.0 7.0 0.00 0.00 0.00 74 1026.7
20180424043708 38 41 3.0 4.0 0.00 0.00 0.00 76 1026.5
20180424042648 37 44 4.0 5.0 0.00 0.00 0.00 79 1026.5
20180424041648 37 39 5.0 5.0 0.00 0.00 0.00 81 1026.3
20180424040648 36 349 6.0 7.0 0.00 0.00 0.00 82 1026.2
20180424035708 37 343 7.0 7.0 0.00 0.00 0.00 80 1025.9
20180424034648 38 13 5.0 6.0 0.00 0.00 0.00 81 1025.9
20180424033648 38 7 3.0 4.0 0.00 0.00 0.00 79 1025.6
20180424032648 39 1 7.0 7.0 0.00 0.00 0.00 78 1025.4
20180424031708 39 328 0.0 0.0 0.00 0.00 0.00 75 1025.3
20180424030708 40 323 0.0 0.0 0.00 0.00 0.00 74 1025.1
20180424025648 40 15 0.0 0.0 0.00 0.00 0.00 74 1025.0
20180424024648 41 25 4.0 5.0 0.00 0.00 0.00 72 1024.9
20180424023648 42 11 2.0 5.0 0.00 0.00 0.00 72 1024.7
20180424022708 42 359 3.0 6.0 0.00 0.00 0.00 71 1024.6
20180424021648 42 10 6.0 6.0 0.00 0.00 0.00 71 1024.5
20180424020648 43 8 4.0 7.0 0.00 0.00 0.00 69 1024.3
20180424015648 44 38 6.0 6.0 0.00 0.00 0.00 66 1024.2
20180424014708 45 11 8.0 8.0 0.00 0.00 0.00 62 1024.0
20180424013648 49 350 8.0 9.0 0.00 0.00 0.00 53 1023.8
20180424012708 51 25 3.0 4.0 0.00 0.00 0.00 50 1023.5
20180424011648 51 20 0.0 0.0 0.00 0.00 0.00 48 1023.3
20180424010648 51 45 0.0 0.0 0.00 0.00 0.00 46 1023.3
20180424005648 52 30 3.0 4.0 0.00 0.00 0.00 46 1023.2
20180424004648 53 13 6.0 6.0 0.00 0.00 0.00 44 1023.2
20180424003648 54 41 5.0 5.0 0.00 0.00 0.00 43 1023.1
20180424002648 54 27 3.0 5.0 0.00 0.00 0.00 42 1023.0
20180424001648 56 24 5.0 5.0 0.00 0.00 0.00 40 1022.9
20180424000648 57 52 0.0 0.0 0.00 0.00 0.00 39 1022.8
20180423235708 57 34 5.0 7.0 0.00 0.00 0.00 37 1022.6
20180423234648 57 25 4.0 5.0 0.00 0.00 0.00 37 1022.5
20180423233648 57 8 6.0 6.0 0.00 0.00 0.00 38 1022.7
20180423232648 57 359 6.0 7.0 0.00 0.00 0.00 37 1022.6
20180423231648 57 25 4.0 5.0 0.00 0.00 0.00 37 1022.5
20180423230648 59 72 6.0 7.0 0.00 0.00 0.00 35 1022.3
20180423225648 58 342 8.0 8.0 0.00 0.00 0.00 35 1022.5
20180423224648 58 302 5.0 8.0 0.00 0.00 0.00 35 1022.5
20180423223648 58 302 8.0 9.0 0.00 0.00 0.00 34 1022.6
20180423222648 58 333 6.0 10.0 0.00 0.00 0.00 34 1022.6
20180423221648 58 318 11.0 12.0 0.00 0.00 0.00 34 1022.6
20180423220648 58 346 7.0 11.0 0.00 0.00 0.00 34 1022.7
20180423215648 58 333 5.0 9.0 0.00 0.00 0.00 35 1022.8
20180423214648 58 326 10.0 10.0 0.00 0.00 0.00 35 1022.8
20180423213648 58 342 9.0 10.0 0.00 0.00 0.00 35 1022.9
20180423212648 58 356 11.0 11.0 0.00 0.00 0.00 35 1023.0
20180423211648 59 343 5.0 8.0 0.00 0.00 0.00 34 1023.1
20180423210648 58 10 6.0 12.0 0.00 0.00 0.00 34 1023.1
20180423205648 58 308 7.0 10.0 0.00 0.00 0.00 34 1023.1